User: anonymous   Login
Location: Elstree
(51.6403°N, 0.2969°W)
Time: 00:08:26
(UTC+00:00)
Language:

Meteor 2-12 Rocket - Orbit

View from above orbital plane
View from above orbital plane
View from above satellite
View from above satellite

Ground track
Ground track

The orbit data is extracted from the following two-line orbital elements,

1 15517U 85013B   21138.20796651  .00000017  00000-0  21476-5 0  9990
2 15517  82.5386  21.9150 0015772 130.5402 229.7135 13.84896983833246
Epoch (UTC): 18 May 2021 04:59:28
Eccentricity: 0.0015772
inclination: 82.5386°
perigee height: 935 km
apogee height: 958 km
right ascension of ascending node: 21.9150°
argument of perigee: 130.5402°
revolutions per day: 13.84896983
mean anomaly at epoch: 229.7135°
orbit number at epoch: 83324

The dashed part of the orbit path shows where the satellite is in the earth's shadow,  

DLR